CDT,Max TemperatureF,Mean TemperatureF,Min TemperatureF,Max Dew PointF,MeanDew PointF,Min DewpointF,Max Humidity, Mean Humidity, Min Humidity, Max Sea Level PressureIn, Mean Sea Level PressureIn, Min Sea Level PressureIn, Max VisibilityMiles, Mean VisibilityMiles, Min VisibilityMiles, Max Wind SpeedMPH, Mean Wind SpeedMPH, Max Gust SpeedMPH,PrecipitationIn, CloudCover, Events, WindDirDegrees
2013-10-1,80,66,51,52,46,37,88,53,21,29.99,29.88,29.76,10,10,2,20,13,28,0.00,0,,306
2013-10-2,84,67,50,63,54,45,88,64,40,30.02,29.94,29.84,10,10,7,18,5,24,0.00,3,,160
2013-10-3,78,69,60,64,61,57,100,78,47,29.85,29.80,29.76,10,10,6,15,6,18,0.02,3,Rain,131
2013-10-4,75,68,60,72,64,52,100,90,68,29.90,29.79,29.68,10,8,2,23,12,30,0.35,5,Rain,128
2013-10-5,60,50,41,52,36,32,81,62,44,29.90,29.83,29.76,10,10,10,25,16,34,0.00,4,,234
2013-10-6,50,46,41,48,44,36,100,93,76,29.94,29.80,29.74,10,8,1,20,9,30,0.07,7,Rain,294
2013-10-7,73,57,41,45,41,36,93,63,27,30.04,30.00,29.95,10,10,10,16,8,23,0.00,0,,258
2013-10-8,77,62,48,46,43,37,76,52,24,30.01,29.97,29.91,10,10,10,28,14,37,0.00,0,,188
2013-10-9,77,62,46,50,47,41,100,65,29,30.05,30.02,29.99,10,10,9,18,10,26,0.00,0,,161
2013-10-10,78,61,44,52,48,45,100,68,32,30.04,29.96,29.85,10,10,7,25,9,31,0.00,0,,154
2013-10-11,73,63,53,61,55,43,100,77,56,29.86,29.76,29.66,10,10,10,32,15,43,0.00,2,,168
2013-10-12,66,54,41,43,35,25,87,58,22,30.27,30.07,29.87,10,10,4,20,9,28,0.00,0,,278
2013-10-13,64,47,30,36,32,28,93,61,28,30.43,30.36,30.27,10,10,5,10,5,14,0.00,0,,138
2013-10-14,62,50,39,52,40,32,100,69,36,30.33,30.09,29.77,10,8,0,26,9,33,0.70,6,Rain,133
2013-10-15,59,52,44,57,45,39,100,88,76,29.96,29.85,29.74,10,9,2,26,17,37,0.00,8,,256
2013-10-16,53,43,33,45,39,32,100,81,44,30.03,29.98,29.95,10,9,2,17,11,21,0.00,5,Rain,303
2013-10-17,60,48,35,43,36,30,93,71,31,29.99,29.89,29.84,10,10,9,22,6,31,0.00,2,,284
2013-10-18,51,43,35,37,31,25,100,68,37,30.08,30.01,29.95,10,10,8,15,10,20,0.00,3,,286
2013-10-19,57,45,33,36,32,28,93,67,33,29.95,29.85,29.79,10,10,9,18,9,29,0.00,5,Rain,272
2013-10-20,62,50,37,39,36,32,87,65,39,29.98,29.78,29.69,10,10,10,25,9,32,0.00,5,,279
2013-10-21,50,40,30,37,30,23,93,65,35,30.06,30.01,29.94,10,9,3,18,9,31,0.00,6,Rain,282
2013-10-22,42,38,35,41,36,30,100,89,70,30.09,29.97,29.87,10,8,2,17,6,18,0.03,8,Rain-Snow,356
2013-10-23,39,34,30,39,33,28,100,93,75,30.17,30.09,30.06,10,9,2,14,6,,0.05,7,Rain-Snow,293
2013-10-24,46,38,30,32,28,27,100,74,46,30.37,30.29,30.17,10,10,9,20,10,25,0.00,3,,302
2013-10-25,57,42,26,34,28,23,93,62,38,30.38,30.22,29.99,10,10,10,26,12,34,0.00,1,,228
2013-10-26,50,39,28,36,29,25,87,62,40,30.18,30.10,29.96,10,10,9,21,15,28,0.00,0,,305
2013-10-27,64,45,26,34,30,23,93,61,30,30.11,29.95,29.82,10,10,9,24,8,30,0.00,0,,228
2013-10-28,50,42,33,36,34,32,93,72,54,30.28,30.18,30.00,10,10,9,23,12,26,0.00,1,,49
2013-10-29,53,46,39,52,43,34,100,87,76,30.26,30.08,29.98,10,9,3,18,12,18,0.00,8,Rain,113
2013-10-30,62,53,44,59,53,45,100,98,82,29.99,29.85,29.71,10,4,0,20,9,28,0.12,7,Fog-Rain,130
2013-10-31,53,45,37,43,40,37,100,91,62,29.72,29.57,29.46,10,9,3,16,10,22,0.00,5,,286